アトラス彗星

C/2019 M3 ( ATLAS )

English version
Home page
Updated on August 19, 2019

---------------------------------------------------------------------

・ プロフィール

発見日 2019年6月30日
発見光度 19.3等
発見者 Asteroid Terrestrial-Impact Last Alert System (ATLAS) search program

・ 軌道要素

Epoch 2018 Dec. 28.0 TT = JDT 2458480.5                                         
T 2019 Jan. 3.00567 TT                                  Williams                
q   2.4165931            (2000.0)            P               Q                  
z  -0.0009748      Peri.   87.89408     +0.03616359     +0.90750288             
 +/-0.0000521      Node   154.89895     -0.24183723     -0.39836635             
e   1.0023556      Incl.   99.42760     +0.96964269     -0.13320203             
H                                                                               
From 180 observations 2019 June 30-Aug. 7, mean residual 0".5.                  

・ 光度変化

        m1 = 11.5 + 5 logΔ + 10.0 log r

---------------------------------------------------------------------

軌道要素はM.P.E.C. 2019-Q12に掲載されたものです。
光度グラフはComet for Windowsで作成したものです。

---------------------------------------------------------------------

Copyright(C) Seiichi Yoshida (comet@aerith.net). All rights reserved.